DJI430 HDAM-HADR

Flight info

Callsign DJI430
Flight time N/A
Altitude 18000
Route ASTAR1
Aircraft DC6/M-SDE1FGHIRWXY/S

Departure

Time N/A
Airport Djibouti-Ambouli Airport (HDAM)

Arrival

Time 2026-05-09 14:47
Airport Aba Tenna Dejazmach Yilma International Airport (HADR)
Time Latitude Longitude Altitude Speed Heading
2026-05-09 14:09 11.29269 42.88340 4402 ft 172 kts 167°
2026-05-09 14:09 11.28098 42.88559 4562 ft 171 kts 170°
2026-05-09 14:10 11.25744 42.88802 4814 ft 169 kts 176°
2026-05-09 14:10 11.24573 42.88825 4943 ft 168 kts 180°
2026-05-09 14:10 11.23404 42.88783 5067 ft 167 kts 183°
2026-05-09 14:11 11.22249 42.88678 5218 ft 166 kts 186°
2026-05-09 14:11 11.21100 42.88514 5360 ft 167 kts 189°
2026-05-09 14:11 11.19950 42.88293 5516 ft 169 kts 192°
2026-05-09 14:11 11.18804 42.88015 5663 ft 170 kts 195°
2026-05-09 14:12 11.17658 42.87684 5811 ft 171 kts 198°
2026-05-09 14:12 11.16522 42.87302 5946 ft 172 kts 200°
2026-05-09 14:12 11.15401 42.86878 6082 ft 172 kts 203°
2026-05-09 14:12 11.14295 42.86418 6229 ft 171 kts 205°
2026-05-09 14:13 11.13205 42.85927 6363 ft 172 kts 206°
2026-05-09 14:14 11.05740 42.81797 7155 ft 175 kts 212°
2026-05-09 14:15 11.04697 42.81149 7291 ft 176 kts 212°
2026-05-09 14:15 11.03655 42.80489 7408 ft 177 kts 212°
2026-05-09 14:15 11.02950 42.80033 7482 ft 178 kts 212°
2026-05-09 14:15 11.01564 42.79136 7631 ft 178 kts 212°
2026-05-09 14:16 11.00520 42.78457 7756 ft 178 kts 213°
2026-05-09 14:16 10.99813 42.77995 7815 ft 178 kts 213°
2026-05-09 14:16 10.98791 42.77316 7942 ft 177 kts 213°
2026-05-09 14:16 10.97415 42.76397 8110 ft 177 kts 213°
2026-05-09 14:17 10.96385 42.75708 8241 ft 177 kts 213°
2026-05-09 14:17 10.95702 42.75250 8314 ft 178 kts 213°
2026-05-09 14:17 10.94671 42.74552 8433 ft 178 kts 213°
2026-05-09 14:17 10.93637 42.73853 8560 ft 179 kts 213°
2026-05-09 14:18 10.92602 42.73151 8667 ft 179 kts 213°
2026-05-09 14:18 10.91569 42.72451 8782 ft 178 kts 213°
2026-05-09 14:18 10.90533 42.71750 8886 ft 179 kts 213°
2026-05-09 14:18 10.89498 42.71045 8984 ft 179 kts 213°
2026-05-09 14:19 10.88463 42.70335 9073 ft 179 kts 213°
2026-05-09 14:19 10.87431 42.69623 9184 ft 180 kts 212°
2026-05-09 14:19 10.86392 42.68909 9287 ft 180 kts 213°
2026-05-09 14:19 10.85351 42.68192 9361 ft 181 kts 213°
2026-05-09 14:20 10.84311 42.67474 9467 ft 181 kts 213°
2026-05-09 14:20 10.83268 42.66755 9561 ft 181 kts 212°
2026-05-09 14:20 10.82224 42.66039 9664 ft 181 kts 213°
2026-05-09 14:21 10.80132 42.64595 9847 ft 182 kts 212°
2026-05-09 14:21 10.79080 42.63870 9950 ft 183 kts 213°
2026-05-09 14:21 10.78028 42.63144 10038 ft 183 kts 213°
2026-05-09 14:21 10.76973 42.62415 10136 ft 183 kts 212°
2026-05-09 14:22 10.75915 42.61690 10227 ft 184 kts 213°
2026-05-09 14:22 10.74859 42.60963 10315 ft 183 kts 212°
2026-05-09 14:22 10.73806 42.60237 10412 ft 183 kts 212°
2026-05-09 14:22 10.72743 42.59508 10459 ft 185 kts 212°
2026-05-09 14:23 10.71663 42.58770 10480 ft 189 kts 212°
2026-05-09 14:23 10.70581 42.58030 10488 ft 191 kts 212°
2026-05-09 14:23 10.69471 42.57268 10496 ft 194 kts 212°
2026-05-09 14:23 10.68347 42.56494 10497 ft 196 kts 212°
2026-05-09 14:24 10.67214 42.55718 10497 ft 197 kts 212°
2026-05-09 14:24 10.66074 42.54936 10499 ft 198 kts 212°
2026-05-09 14:24 10.64928 42.54152 10500 ft 199 kts 213°
2026-05-09 14:24 10.63779 42.53362 10500 ft 200 kts 212°
2026-05-09 14:25 10.62628 42.52570 10497 ft 200 kts 212°
2026-05-09 14:25 10.61475 42.51775 10498 ft 200 kts 213°
2026-05-09 14:25 10.60323 42.50980 10506 ft 200 kts 213°
2026-05-09 14:25 10.59168 42.50186 10507 ft 201 kts 212°
2026-05-09 14:26 10.58006 42.49387 10506 ft 202 kts 212°
2026-05-09 14:26 10.56844 42.48588 10501 ft 202 kts 212°
2026-05-09 14:26 10.55677 42.47788 10506 ft 202 kts 212°
2026-05-09 14:26 10.54512 42.46988 10501 ft 202 kts 213°
2026-05-09 14:27 10.53350 42.46190 10498 ft 202 kts 212°
2026-05-09 14:27 10.52185 42.45394 10501 ft 202 kts 212°
2026-05-09 14:27 10.51019 42.44596 10499 ft 202 kts 213°
2026-05-09 14:27 10.49856 42.43795 10502 ft 202 kts 212°
2026-05-09 14:28 10.48690 42.42993 10495 ft 202 kts 212°
2026-05-09 14:28 10.47526 42.42196 10498 ft 201 kts 212°
2026-05-09 14:28 10.46427 42.41443 10480 ft 176 kts 212°
2026-05-09 14:28 10.45481 42.40792 10495 ft 153 kts 212°
2026-05-09 14:29 10.44677 42.40227 10484 ft 132 kts 212°
2026-05-09 14:29 10.43949 42.39714 10316 ft 127 kts 212°
2026-05-09 14:29 10.43192 42.39195 10073 ft 129 kts 210°
2026-05-09 14:29 10.42466 42.38694 9874 ft 127 kts 211°
2026-05-09 14:30 10.41737 42.38197 9678 ft 126 kts 211°
2026-05-09 14:30 10.41011 42.37702 9416 ft 131 kts 210°
2026-05-09 14:30 10.40152 42.37148 9267 ft 160 kts 209°
2026-05-09 14:30 10.39139 42.36497 9118 ft 183 kts 210°
2026-05-09 14:31 10.38021 42.35752 8957 ft 200 kts 211°
2026-05-09 14:31 10.36808 42.34932 8783 ft 220 kts 212°
2026-05-09 14:31 10.35480 42.34022 8622 ft 239 kts 212°
2026-05-09 14:31 10.34057 42.33037 8446 ft 255 kts 213°
2026-05-09 14:32 10.32552 42.31990 8274 ft 268 kts 213°
2026-05-09 14:32 10.30982 42.30898 8095 ft 278 kts 213°
2026-05-09 14:32 10.29364 42.29769 7918 ft 286 kts 213°
2026-05-09 14:32 10.27701 42.28612 7757 ft 292 kts 213°
2026-05-09 14:33 10.26016 42.27440 7641 ft 295 kts 213°
2026-05-09 14:33 10.24321 42.26271 7578 ft 294 kts 213°
2026-05-09 14:33 10.22632 42.25107 7578 ft 291 kts 213°
2026-05-09 14:33 10.20959 42.23958 7550 ft 290 kts 213°
2026-05-09 14:34 10.19286 42.22810 7516 ft 290 kts 213°
2026-05-09 14:34 10.17621 42.21663 7504 ft 289 kts 213°
2026-05-09 14:34 10.15962 42.20523 7493 ft 288 kts 213°
2026-05-09 14:34 10.14310 42.19387 7496 ft 287 kts 213°
2026-05-09 14:35 10.12659 42.18257 7500 ft 286 kts 213°
2026-05-09 14:35 10.11007 42.17132 7496 ft 286 kts 213°
2026-05-09 14:35 10.09356 42.16015 7491 ft 285 kts 212°
2026-05-09 14:35 10.07715 42.14891 7492 ft 284 kts 213°
2026-05-09 14:36 10.06080 42.13769 7496 ft 283 kts 213°
2026-05-09 14:36 10.04452 42.12651 7496 ft 282 kts 213°
2026-05-09 14:36 10.02826 42.11533 7502 ft 282 kts 213°
2026-05-09 14:36 10.01204 42.10414 7499 ft 282 kts 213°
2026-05-09 14:37 9.99580 42.09298 7510 ft 282 kts 213°
2026-05-09 14:37 9.97966 42.08203 7512 ft 283 kts 213°
2026-05-09 14:37 9.96331 42.07088 7508 ft 283 kts 213°
2026-05-09 14:37 9.94702 42.05975 7514 ft 280 kts 213°
2026-05-09 14:38 9.93105 42.04879 7516 ft 275 kts 212°
2026-05-09 14:38 9.91533 42.03805 7522 ft 271 kts 212°
2026-05-09 14:38 9.89974 42.02752 7518 ft 268 kts 212°
2026-05-09 14:38 9.88433 42.01708 7523 ft 265 kts 213°
2026-05-09 14:39 9.86911 42.00665 7517 ft 263 kts 213°
2026-05-09 14:39 9.85403 41.99630 7524 ft 260 kts 213°
2026-05-09 14:39 9.83914 41.98605 7535 ft 258 kts 212°
2026-05-09 14:39 9.82414 41.97581 7390 ft 263 kts 213°
2026-05-09 14:40 9.80872 41.96528 7152 ft 271 kts 213°
2026-05-09 14:40 9.79292 41.95452 6915 ft 276 kts 213°
2026-05-09 14:40 9.77681 41.94355 6685 ft 282 kts 213°
2026-05-09 14:40 9.76042 41.93234 6433 ft 287 kts 213°
2026-05-09 14:41 9.74376 41.92098 6157 ft 291 kts 213°
2026-05-09 14:41 9.72691 41.90945 5882 ft 294 kts 213°
2026-05-09 14:41 9.70986 41.89774 5536 ft 296 kts 213°
2026-05-09 14:41 9.69529 41.88415 5459 ft 268 kts 233°
2026-05-09 14:42 9.68962 41.86760 5236 ft 241 kts 271°
2026-05-09 14:42 9.69166 41.85092 4805 ft 232 kts 285°
2026-05-09 14:42 9.69507 41.83548 4519 ft 223 kts 276°
2026-05-09 14:42 9.69613 41.82010 4328 ft 212 kts 274°
2026-05-09 14:43 9.69675 41.80577 4323 ft 197 kts 271°
2026-05-09 14:43 9.69667 41.79229 4343 ft 185 kts 269°
2026-05-09 14:43 9.69596 41.77966 4375 ft 176 kts 278°
2026-05-09 14:43 9.70364 41.77129 4234 ft 172 kts 360°
2026-05-09 14:44 9.71310 41.77691 4111 ft 159 kts 66°
2026-05-09 14:44 9.71367 41.78737 4156 ft 147 kts 109°
2026-05-09 14:44 9.70845 41.79609 4113 ft 148 kts 127°
2026-05-09 14:44 9.70195 41.80424 4064 ft 146 kts 130°
2026-05-09 14:45 9.69531 41.81183 4044 ft 140 kts 130°
2026-05-09 14:45 9.68876 41.81896 3988 ft 137 kts 135°
2026-05-09 14:45 9.68127 41.82490 3868 ft 136 kts 148°
2026-05-09 14:45 9.67341 41.82904 3831 ft 122 kts 154°
2026-05-09 14:46 9.66592 41.83279 3785 ft 119 kts 152°
2026-05-09 14:46 9.65856 41.83643 3777 ft 116 kts 157°
2026-05-09 14:46 9.65137 41.83995 3758 ft 114 kts 150°
2026-05-09 14:46 9.64453 41.84382 3723 ft 112 kts 151°
2026-05-09 14:47 9.63751 41.84748 3641 ft 113 kts 151°
2026-05-09 14:47 9.63069 41.85110 3657 ft 107 kts 152°
2026-05-09 14:47 9.62470 41.85436 3699 ft 84 kts 152°
2026-05-09 14:47 9.62072 41.85644 3726 ft 35 kts 150°
2026-05-09 14:48 9.61998 41.85686 3741 ft 0 kts 155°
2026-05-09 14:48 9.61954 41.85704 3744 ft 14 kts 154°
2026-05-09 14:48 9.61855 41.85755 3750 ft 20 kts 152°
2026-05-09 14:48 9.61707 41.85843 3760 ft 26 kts 150°
2026-05-09 14:49 9.61580 41.85858 3762 ft 14 kts 235°
2026-05-09 14:49 9.61519 41.85801 3763 ft 9 kts 213°
2026-05-09 14:49 9.61481 41.85775 3763 ft 4 kts 217°
2026-05-09 14:49 9.61466 41.85763 3764 ft 4 kts 217°
2026-05-09 14:50 9.61412 41.85724 3766 ft 14 kts 214°
2026-05-09 14:50 9.61345 41.85712 3770 ft 9 kts 228°
2026-05-09 14:50 9.61316 41.85709 3772 ft 6 kts 93°
2026-05-09 14:50 9.61325 41.85740 3773 ft 0 kts 63°